Location: Bessat
(45.8735°N, 1.9924°E)
Time: 18:54:13
(UTC+00:00)

Cosmos 2082 Rocket - Pass Details

Date: 11 May 2021
Orbit: 834 x 853 km, 71.0° (Epoch: 20 June)

Event Time Altitude Azimuth Distance (km) Brightness Sun altitude
Rises 19:52:09 0° 341° (NNW) 3,392 6.3 -6.7°
Reaches altitude 10° 19:55:24 10° 360° (N) 2,455 5.2 -7.2°
Maximum altitude 19:59:15 19° 43° (NE) 1,917 4.0 -7.7°
Drops below altitude 10° 20:03:07 10° 87° (E) 2,450 4.2 -8.3°
Enters shadow 20:04:27 - 96° (E) 2,810 4.4 -8.5°
